Wind_Speed
29 28 28 28 28 28 27 27 26 24 23 21 22 22 23 22 22 22 22 21 21 21 22 22 22 22 22 23 24 24 24 24 24 24 24 23 23 23 23 23 23 23 23 23
31 29 28 28 28 28 27 27 27 25 24 23 22 23 23 23 22 22 22 22 22 23 23 24 24 25 26 26 26 25 26 26 26 26 25 25 25 25 25 25 24 24 24 24
29 29 29 28 27 27 28 27 26 26 24 23 23 22 22 22 23 22 22 22 23 24 25 25 26 27 27 28 27 27 27 27 27 27 27 27 26 26 26 26 26 26 26 25
29 29 30 28 27 27 27 26 26 26 24 24 23 23 23 23 22 22 23 24 24 26 27 26 26 27 27 27 27 27 27 28 28 28 28 28 27 27 27 27 27 27 27 28
30 29 29 27 27 26 26 25 25 24 23 23 23 23 24 24 23 24 24 24 25 26 26 27 27 27 27 27 27 27 27 27 27 27 28 28 27 27 27 27 28 28 29 29
31 29 28 27 26 26 25 26 24 23 23 23 23 23 24 25 25 25 24 24 25 26 26 26 26 26 27 26 26 26 26 26 27 27 27 26 26 26 26 27 27 28 29 28
31 31 29 28 25 25 26 25 23 23 23 23 23 24 24 25 26 26 26 26 26 26 26 26 26 27 27 26 26 26 26 26 27 27 27 26 26 26 27 27 27 27 28 28
32 31 31 29 27 27 26 25 24 23 23 24 24 25 26 26 26 27 27 27 27 27 26 26 26 27 27 27 27 27 27 26 27 27 26 26 27 27 28 27 27 27 28 29
33 32 30 29 28 27 26 26 25 24 24 24 25 25 26 27 27 27 28 28 27 27 26 27 27 28 28 28 28 27 28 27 26 26 27 27 27 27 28 28 29 29 28 29
33 32 30 29 28 27 26 25 25 24 24 24 24 25 26 26 27 27 26 26 27 28 28 28 28 28 27 27 27 28 27 26 26 26 26 27 27 27 28 29 30 29 29 30
32 31 31 29 28 27 26 25 25 25 25 25 25 25 25 25 26 25 26 27 28 29 29 28 28 27 27 27 28 28 27 27 27 27 28 28 28 28 29 30 30 30 30 31
32 31 31 30 28 27 27 26 25 25 26 25 25 26 26 26 27 26 25 25 26 27 27 27 27 26 27 27 27 27 27 27 27 27 28 28 29 29 30 31 31 31 31 31
30 30 31 30 29 29 28 27 27 26 26 26 26 26 26 27 27 26 26 25 26 26 26 26 27 27 27 26 26 27 27 27 27 27 28 29 29 30 30 31 31 31 31 30
30 31 31 30 30 29 29 28 27 27 27 26 26 26 26 26 27 27 26 26 26 26 27 27 27 27 27 26 27 27 27 27 27 28 29 29 30 30 31 31 31 30 31 31
30 30 31 30 30 30 29 29 28 27 26 26 26 26 26 27 27 27 27 27 27 28 28 28 27 27 27 27 27 27 28 28 29 29 30 30 30 30 30 30 30 30 30 30
31 30 30 30 29 29 29 30 29 27 27 26 26 26 27 27 27 27 27 27 28 29 28 28 27 27 28 29 28 28 28 28 28 29 29 29 29 30 29 29 29 29 29 29
29 29 29 30 29 28 29 29 28 28 28 27 27 27 27 27 27 27 27 27 27 28 28 27 27 27 28 28 28 28 28 28 28 28 28 29 29 29 29 29 29 29 28 28
29 29 29 28 28 28 29 28 27 27 27 27 27 27 27 27 27 27 28 28 28 28 28 28 28 28 28 28 28 28 28 28 29 28 29 30 30 30 29 29 29 28 27 27
27 27 27 27 27 28 28 27 27 27 27 27 27 28 28 28 28 29 29 28 28 28 28 28 28 28 28 28 28 28 28 29 29 29 29 29 29 29 29 28 28 28 27 26
26 26 26 26 27 27 27 27 26 26 27 27 27 28 28 28 29 29 29 28 27 26 26 26 27 28 28 27 28 28 28 28 28 28 29 29 28 28 28 28 27 27 26 26
25 25 25 25 25 26 26 26 26 26 26 27 28 28 28 28 28 28 27 26 26 26 26 27 27 27 27 27 27 28 27 27 27 28 27 27 28 28 27 27 27 27 26 26
24 24 24 25 24 24 25 26 26 26 26 27 27 26 25 25 26 26 25 25 26 26 27 27 26 27 27 27 27 27 27 27 27 27 27 27 27 27 27 27 27 26 26 26
23 23 23 24 23 23 24 25 25 25 25 24 23 24 25 25 25 24 24 25 25 26 26 26 26 27 27 27 26 26 27 27 27 27 26 26 26 26 26 27 27 26 26 26
20 21 21 22 22 22 22 22 23 23 22 22 23 23 23 23 23 24 24 25 25 25 26 26 26 26 26 26 26 27 27 27 27 26 26 26 26 26 26 26 26 26 26 26
19 19 19 21 21 21 21 21 21 21 21 20 20 21 22 23 23 23 24 26 25 25 25 26 26 26 26 26 27 27 27 27 26 25 25 25 25 26 26 26 26 26 25 25
18 18 19 19 19 19 19 20 20 20 20 20 21 21 22 22 22 22 23 23 23 23 24 25 25 26 26 27 27 27 27 26 25 24 24 24 25 26 26 25 24 24 25 25
17 17 18 19 19 19 19 20 20 20 20 20 20 20 20 21 21 22 22 22 22 23 23 24 25 26 26 27 27 26 26 26 25 25 25 25 25 26 25 25 25 25 25 25
Wind_Direction
240 242 246 249 251 253 254 255 258 261 263 263 266 269 269 270 273 270 270 272 271 271 272 273 275 279 282 284 286 286 286 287 288 289 287 285 283 281 280 280 282 283 284 284
242 243 244 247 248 250 255 256 257 259 261 263 264 266 267 269 271 271 271 271 271 271 273 274 276 278 280 282 284 284 284 285 286 286 285 284 281 280 278 279 280 281 281 281
242 245 246 247 247 248 252 254 256 257 261 263 264 267 268 268 270 270 271 272 272 273 276 277 278 278 279 280 282 284 284 283 284 283 282 283 283 280 278 277 277 278 279 280
241 244 246 247 248 250 252 254 255 256 258 261 263 266 268 269 271 271 271 273 274 275 276 277 278 279 279 280 281 282 283 284 284 283 283 283 282 282 280 278 277 276 278 279
242 246 248 249 248 248 251 254 254 256 257 259 262 265 267 270 272 274 273 274 275 275 275 276 277 279 281 280 282 282 282 284 283 284 284 283 282 281 280 279 279 279 278 278
243 244 247 249 251 250 250 252 251 253 255 257 260 264 268 270 271 272 274 275 276 277 276 277 277 278 280 281 282 283 284 285 285 284 284 283 283 283 282 280 281 282 282 281
243 245 248 249 251 250 249 250 251 253 254 256 259 264 268 270 271 271 273 274 275 275 276 277 278 278 279 280 281 283 285 285 284 283 283 284 285 284 284 283 284 285 284 282
242 245 247 249 249 248 250 251 252 253 256 257 260 264 267 270 272 272 272 273 274 275 276 278 278 277 278 278 279 281 283 285 284 283 283 284 286 287 286 286 286 285 284 282
241 244 246 248 249 250 251 252 253 255 256 258 261 263 267 270 272 272 270 272 274 275 276 277 278 278 277 277 278 280 282 283 283 283 283 284 285 286 287 288 288 286 285 283
240 242 244 247 248 249 251 251 253 254 257 259 261 264 267 269 271 270 271 272 273 275 277 277 278 277 276 277 277 280 282 281 282 283 284 285 287 288 288 290 289 287 287 286
239 240 241 243 245 247 249 250 252 255 258 261 263 265 268 270 271 271 272 273 274 274 275 275 276 276 276 277 278 280 280 280 281 283 285 285 286 287 288 288 288 289 288 287
236 237 240 242 243 245 248 249 251 254 257 260 263 265 267 269 270 271 272 273 275 276 276 276 276 277 277 277 279 279 280 280 281 282 284 285 286 288 288 289 290 291 290 289
238 238 240 241 243 245 247 250 252 253 257 261 263 264 266 268 269 269 269 273 275 276 276 276 276 276 276 277 279 279 279 281 281 282 283 285 286 288 289 290 292 291 289 289
239 239 240 240 242 244 247 249 250 252 255 259 262 263 264 267 268 269 269 272 274 276 277 278 279 279 279 281 280 279 280 280 281 283 284 285 287 288 289 290 291 289 289 289
238 239 240 241 242 243 246 249 250 252 255 258 259 259 262 265 268 270 272 274 275 278 279 279 280 281 282 283 282 280 280 280 281 283 285 286 288 289 290 291 291 290 289 288
239 240 240 241 241 243 245 248 249 252 255 259 261 263 265 266 268 270 272 276 277 280 280 279 281 282 284 285 283 282 282 282 283 285 287 289 289 290 290 289 290 290 289 288
239 240 241 241 241 244 246 247 250 252 255 258 261 263 265 267 268 270 272 274 277 279 280 282 282 284 285 286 287 286 285 285 285 287 289 290 291 290 290 288 288 289 288 288
240 241 242 242 245 246 245 247 250 253 254 257 259 262 265 266 266 268 271 274 277 279 279 281 283 284 285 286 287 288 287 287 287 289 290 290 290 291 290 289 289 289 289 288
240 242 242 244 245 246 246 248 250 253 254 257 259 262 264 266 267 269 272 274 276 277 278 279 282 284 286 287 288 288 288 287 287 288 289 290 289 289 288 288 288 288 288 288
241 244 245 245 245 246 248 249 250 254 255 256 259 262 265 266 267 270 272 275 276 277 279 282 283 285 287 287 287 289 289 289 288 289 290 291 292 291 289 288 288 288 286 285
242 245 246 245 244 245 247 248 249 253 255 257 260 263 265 265 267 270 272 274 277 280 282 284 286 287 288 288 289 290 291 291 290 291 290 290 291 291 291 290 288 288 287 285
241 243 244 244 244 244 246 248 248 251 256 258 258 261 263 265 267 269 271 274 277 281 285 287 288 288 289 290 289 289 290 291 293 293 293 292 291 290 291 292 292 291 290 287
241 243 243 243 243 245 246 247 248 252 254 255 259 262 264 267 268 270 272 276 279 282 286 287 288 288 289 290 290 291 292 292 293 294 293 292 292 292 293 293 292 291 290 288
240 242 242 243 244 244 245 248 251 253 254 257 260 262 265 269 269 270 273 277 279 281 282 284 285 287 289 291 291 292 292 292 293 293 293 292 292 293 294 293 292 291 289 288
237 240 244 244 245 248 250 250 251 253 256 259 260 263 267 270 272 274 276 279 281 280 281 282 285 287 289 291 292 293 292 293 293 293 294 294 295 295 294 294 293 291 289 288
239 242 244 243 243 247 249 252 255 256 259 261 263 266 269 271 273 275 277 280 282 283 284 285 287 289 291 292 292 291 291 292 293 295 296 297 298 297 296 295 294 293 290 289
240 241 242 244 245 248 252 255 258 260 261 264 267 269 271 273 275 277 280 283 284 286 287 288 288 290 292 293 291 290 290 292 294 295 296 298 299 299 296 294 295 295 294 291
Height
5857 5860 5862 5863 5865 5867 5868 5870 5872 5874 5874 5875 5874 5874 5874 5873 5873 5873 5872 5872 5872 5871 5871 5870 5870 5869 5868 5867 5866 5864 5863 5861 5859 5857 5856 5855 5853 5852 5851 5850 5848 5847 5846 5845
5849 5851 5853 5855 5858 5859 5861 5862 5864 5865 5867 5868 5867 5867 5867 5867 5867 5866 5866 5866 5865 5865 5864 5864 5863 5862 5861 5860 5859 5857 5856 5854 5852 5850 5849 5848 5846 5845 5844 5843 5841 5840 5839 5838
5841 5844 5845 5847 5850 5852 5854 5855 5857 5858 5860 5861 5861 5861 5861 5860 5860 5860 5860 5859 5859 5858 5858 5857 5856 5855 5854 5853 5851 5850 5848 5847 5845 5843 5842 5840 5839 5837 5836 5835 5834 5833 5832 5831
5833 5836 5837 5843 5843 5845 5846 5848 5849 5851 5852 5853 5854 5854 5854 5854 5854 5853 5853 5853 5852 5851 5850 5850 5849 5847 5846 5845 5843 5842 5841 5839 5837 5836 5834 5832 5831 5829 5828 5827 5826 5825 5824 5823
5826 5828 5830 5834 5835 5837 5839 5840 5842 5843 5845 5846 5846 5847 5847 5847 5847 5846 5846 5845 5845 5844 5843 5842 5841 5840 5838 5837 5835 5834 5833 5831 5829 5828 5826 5825 5823 5821 5820 5819 5818 5816 5815 5814
5817 5820 5823 5827 5828 5829 5832 5833 5835 5836 5838 5839 5839 5840 5841 5840 5840 5839 5839 5838 5837 5836 5835 5834 5833 5832 5831 5829 5828 5826 5825 5823 5822 5820 5818 5817 5815 5813 5812 5810 5809 5807 5806 5805
5809 5811 5815 5818 5820 5822 5825 5827 5828 5829 5830 5831 5832 5833 5834 5833 5832 5832 5831 5830 5829 5828 5828 5827 5826 5825 5823 5822 5821 5819 5818 5816 5814 5812 5811 5809 5807 5806 5804 5802 5801 5799 5798 5796
5801 5804 5808 5809 5812 5815 5817 5819 5820 5822 5823 5824 5825 5825 5825 5825 5825 5824 5823 5822 5821 5821 5820 5819 5818 5817 5816 5814 5813 5812 5810 5808 5806 5804 5803 5801 5800 5798 5796 5794 5793 5791 5789 5788
5793 5797 5799 5801 5804 5806 5809 5811 5813 5814 5816 5817 5817 5817 5817 5817 5817 5816 5815 5814 5814 5813 5812 5811 5810 5809 5807 5806 5805 5804 5802 5800 5798 5797 5795 5793 5792 5790 5788 5786 5784 5783 5781 5779
5784 5787 5790 5793 5796 5798 5801 5803 5805 5806 5808 5809 5809 5810 5810 5809 5809 5808 5807 5806 5805 5805 5804 5803 5801 5800 5799 5798 5797 5795 5794 5792 5790 5789 5787 5785 5783 5781 5780 5778 5775 5773 5772 5770
5775 5779 5782 5785 5788 5791 5793 5795 5797 5799 5800 5801 5802 5802 5802 5801 5801 5800 5799 5798 5797 5796 5795 5794 5793 5792 5791 5789 5788 5787 5785 5784 5782 5781 5779 5778 5776 5774 5772 5769 5767 5765 5763 5761
5767 5770 5774 5777 5780 5783 5785 5787 5789 5791 5793 5793 5794 5794 5794 5794 5793 5792 5791 5790 5789 5788 5786 5785 5784 5783 5782 5781 5779 5778 5776 5775 5773 5772 5771 5769 5767 5765 5763 5761 5758 5756 5754 5751
5759 5763 5766 5770 5772 5775 5777 5779 5781 5783 5785 5785 5786 5786 5786 5785 5785 5785 5784 5783 5782 5780 5779 5778 5776 5775 5774 5773 5771 5770 5768 5766 5765 5764 5762 5760 5758 5756 5754 5752 5749 5747 5745 5742
5751 5755 5758 5761 5764 5767 5769 5771 5773 5775 5776 5777 5777 5778 5778 5777 5777 5776 5776 5775 5774 5773 5772 5770 5768 5767 5766 5764 5763 5761 5759 5758 5756 5755 5753 5751 5749 5747 5745 5742 5740 5737 5735 5733
5743 5747 5750 5753 5756 5758 5761 5763 5764 5766 5767 5768 5769 5769 5769 5769 5769 5768 5768 5767 5766 5765 5764 5762 5761 5759 5757 5756 5754 5752 5751 5749 5747 5746 5744 5742 5740 5738 5735 5733 5731 5728 5726 5724
5735 5738 5741 5744 5747 5750 5752 5754 5756 5758 5759 5760 5761 5761 5761 5761 5761 5760 5759 5759 5758 5757 5756 5754 5753 5751 5749 5747 5745 5744 5742 5740 5738 5737 5735 5733 5731 5729 5726 5724 5722 5720 5717 5715
5727 5729 5732 5735 5738 5741 5743 5745 5747 5749 5751 5752 5752 5753 5753 5753 5753 5752 5751 5751 5750 5749 5747 5746 5744 5743 5741 5739 5737 5735 5733 5732 5730 5728 5726 5724 5721 5719 5717 5715 5713 5711 5709 5707
5718 5721 5724 5727 5729 5732 5734 5736 5738 5740 5741 5743 5744 5744 5745 5745 5744 5744 5743 5742 5741 5740 5739 5737 5736 5734 5732 5730 5728 5726 5725 5723 5721 5719 5717 5715 5712 5710 5708 5706 5703 5702 5700 5698
5711 5713 5716 5718 5721 5724 5726 5728 5730 5732 5733 5734 5735 5735 5736 5736 5736 5735 5735 5734 5733 5732 5730 5729 5727 5726 5724 5722 5720 5718 5715 5714 5712 5710 5708 5706 5703 5701 5699 5697 5694 5692 5690 5689
5703 5705 5708 5710 5713 5715 5718 5720 5722 5723 5725 5726 5726 5727 5727 5727 5727 5726 5726 5725 5724 5723 5722 5721 5719 5717 5715 5713 5711 5709 5707 5705 5703 5701 5699 5697 5694 5692 5690 5688 5685 5683 5681 5680
5695 5698 5700 5702 5705 5707 5710 5711 5713 5715 5716 5717 5718 5718 5718 5718 5718 5718 5717 5717 5716 5715 5714 5712 5710 5708 5706 5704 5702 5700 5698 5696 5694 5692 5690 5688 5686 5683 5681 5679 5677 5675 5672 5671
5688 5690 5692 5695 5697 5699 5701 5703 5705 5706 5707 5708 5709 5709 5709 5709 5710 5710 5709 5709 5708 5707 5706 5704 5702 5700 5698 5696 5694 5692 5690 5687 5685 5683 5681 5679 5677 5675 5672 5670 5668 5666 5664 5662
5681 5683 5685 5688 5690 5692 5694 5696 5697 5698 5699 5700 5701 5701 5701 5702 5702 5702 5701 5701 5700 5699 5697 5696 5694 5692 5690 5688 5685 5683 5681 5679 5677 5675 5672 5670 5668 5666 5664 5661 5659 5657 5655 5654
5674 5676 5679 5681 5683 5685 5687 5688 5690 5691 5692 5693 5694 5694 5695 5694 5694 5694 5693 5692 5691 5690 5689 5688 5686 5684 5682 5680 5677 5675 5674 5671 5669 5667 5664 5662 5660 5657 5655 5653 5651 5648 5646 5645
5669 5671 5673 5675 5677 5679 5680 5682 5683 5684 5685 5686 5687 5687 5687 5687 5687 5686 5686 5684 5683 5682 5681 5679 5678 5676 5674 5672 5669 5667 5665 5663 5661 5658 5656 5654 5651 5649 5646 5644 5641 5639 5637 5636
5664 5666 5668 5670 5671 5673 5674 5676 5677 5678 5679 5679 5680 5680 5680 5680 5679 5679 5678 5677 5675 5674 5673 5671 5669 5667 5665 5663 5661 5659 5657 5654 5652 5650 5647 5645 5642 5640 5637 5635 5633 5630 5628 5626
5658 5660 5663 5664 5666 5667 5669 5670 5671 5672 5672 5673 5673 5673 5673 5673 5672 5672 5671 5670 5668 5667 5665 5663 5661 5659 5657 5655 5652 5650 5648 5646 5644 5642 5639 5637 5634 5631 5629 5627 5624 5622 5620 5618